Belize, Belize

3:57 PM CST on February 20, 2018 (GMT -0600)
Philip S W Goldson International

Weather History for MZBZ - December, 2013

Change the Weather History Date:

Saturday, December 14, 2013

  Actual Average Record
Temperature  
Mean Temperature 76 °F -  
Max Temperature 83 °F - 86 °F (2000)
Min Temperature 70 °F 68 °F 57 °F (2017)
Cooling Degree Days 12    
Growing Degree Days 26 (Base 50)    
Moisture  
Dew Point 74 °F    
Average Humidity 90    
Maximum Humidity 100    
Minimum Humidity 68    
Precipitation  
Precipitation 0.01 in 0.21 in - ()
Sea Level Pressure  
Sea Level Pressure 29.92 in    
Wind  
Wind Speed 3 mph ()    
Max Wind Speed 7 mph    
Max Gust Speed -    
Visibility 5.6 miles    
Events Fog , Rain    
Averages and records for this station are not official NWS values.
T = Trace of Precipitation, MM = Missing Value Source: Averaged Metar Reports

Daily Weather History Graph

Daily Weather History Graph

Search for Another Location

Airport or City:

Trip Planner

Search our weather history database for the weather conditions in past years. The results will help you decide how hot, cold, wet, or windy it might be!

Date:

Astronomy

Dec. 14, 2013 Rise Set
Actual Time 6:15 AM CST 5:20 PM CST
Civil Twilight 5:51 AM CST 5:44 PM CST
Nautical Twilight 5:24 AM CST 6:11 PM CST
Astronomical Twilight 4:57 AM CST 6:38 PM CST
Moon 3:29 PM CST (12/14) 3:50 AM CST (12/14)
Length of Visible Light 11h 52m
Length of Day
11h 05m
Waxing Gibbous, 94% of the Moon is Illuminated
Dec 14
Waxing Gibbous
Dec 17
Full
Dec 25
Last Quarter
Jan 1
New
Jan 7
First Quarter

Hourly Weather History & Observations

Time (CST) Temp. Heat Index Dew Point Humidity Pressure Visibility Wind Dir Wind Speed Gust Speed Precip Events Conditions
12:00 AM 74 °F - 73 °F 97% 29.97 in 11 mi NE 4.6 mph - - Rain Light Rain Showers
3:00 AM 72 °F - 71 °F 97% 29.91 in 12 mi SSW 2.3 mph - -   Partly Cloudy
5:00 AM 73.4 °F - 73.4 °F 100% 29.92 in 6.2 mi WSW 2.3 mph - N/A   Mostly Cloudy
6:00 AM 73 °F - 72 °F 96% 29.93 in 2 mi West 3.5 mph - -   Partly Cloudy
6:00 AM 73.4 °F - 71.6 °F 94% 29.92 in 2.5 mi West 3.5 mph - N/A   Mostly Cloudy
6:15 AM 73.4 °F - 73.4 °F 100% 29.92 in 0.5 mi WNW 4.6 mph - N/A Fog Fog
6:30 AM 73.4 °F - 73.4 °F 100% 29.92 in 0.2 mi WNW 3.5 mph - N/A Fog Fog
7:00 AM 71.6 °F - 71.6 °F 100% 29.92 in 0.2 mi NW 3.5 mph - N/A Fog Fog
8:00 AM 73.4 °F - 73.4 °F 100% 29.95 in 0.2 mi WNW 3.5 mph - N/A Fog Fog
8:23 AM 73.4 °F - 73.4 °F 100% 29.96 in 0.4 mi West 3.5 mph - N/A Fog Fog
8:37 AM 73.4 °F - 73.4 °F 100% 29.96 in 0.5 mi West 2.3 mph - N/A Fog Fog
9:00 AM 74 °F - 73 °F 97% 29.97 in 1 mi WNW 3.5 mph - -   Mist
9:00 AM 73.4 °F - 73.4 °F 100% 29.96 in 0.9 mi WNW 3.5 mph - N/A   Mostly Cloudy
9:10 AM 73.4 °F - 73.4 °F 100% 29.96 in 5.6 mi NW 3.5 mph - N/A   Mostly Cloudy
10:00 AM 77.0 °F - 75.2 °F 94% 29.96 in 6.2 mi North 2.3 mph - N/A   Mostly Cloudy
11:00 AM 80.6 °F 86.2 °F 75.2 °F 84% 29.93 in 6.2 mi North 2.3 mph - N/A   Mostly Cloudy
12:00 PM 83 °F - 76 °F 74% 29.91 in 14 mi ENE 6.9 mph - -   Partly Cloudy
12:00 PM 82.4 °F 89.5 °F 75.2 °F 79% 29.90 in 6.2 mi ENE 6.9 mph - N/A   Scattered Clouds
1:00 PM 82.4 °F 89.5 °F 75.2 °F 79% 29.88 in 6.2 mi East 5.8 mph - N/A   Scattered Clouds
2:00 PM 82.4 °F 89.5 °F 75.2 °F 79% 29.86 in 6.2 mi East 6.9 mph - N/A   Scattered Clouds
3:00 PM 83 °F - 74 °F 68% 29.86 in 14 mi East 6.9 mph - -   Partly Cloudy
3:00 PM 84.2 °F 90.9 °F 73.4 °F 70% 29.86 in 6.2 mi East 6.9 mph - N/A   Scattered Clouds
4:00 PM 82.4 °F 88.2 °F 73.4 °F 74% 29.86 in 6.2 mi ESE 5.8 mph - N/A   Scattered Clouds
5:00 PM 80.6 °F 86.2 °F 75.2 °F 84% 29.88 in 6.2 mi East 4.6 mph - N/A   Mostly Cloudy
6:00 PM 79 °F - 75 °F 84% 29.90 in 12 mi East 2.3 mph - -   Scattered Clouds
6:00 PM 78.8 °F - 75.2 °F 89% 29.89 in 6.2 mi East 2.3 mph - N/A   Scattered Clouds
9:00 PM 77 °F - 75 °F 90% 29.96 in 12 mi Calm Calm - -   Scattered Clouds